Terminal Aerodrome Forecast
Issued by NWS

Home | Current Version | Previous Version | Text Only | Print | Product List | Glossary On
Versions: 1 2 3 4 5 6 7 8 9 10 11 12 13 14 15 16 17 18 19 20 21 22 23 24 25
000
FTUS42 KCAE 222300
TAFDNL
TAF
KDNL 222334Z 2300/2324 03006KT P6SM -SHRA SCT035 OVC100
     FM230600 03008KT 4SM BR OVC015
     FM231600 04012KT P6SM OVC035=

USA.gov is the U.S. government's official web portal to all federal, state and local government web resources and services.